Location: Biharia
(46.4333°N, 22.8000°E)
Time: 21:55:33
(UTC+00:00)

Cosmos 1470 - Pass Details

Date: 16 October 2021
Orbit: 518 x 542 km, 82.5° (Epoch: 29 November)

Event Time Altitude Azimuth Distance (km) Brightness Sun altitude
Rises 16:17:37 0° 194° (SSW) 2,691 6.6 -7.2°
Reaches altitude 10° 16:19:46 10° 196° (SSW) 1,804 5.8 -7.5°
Maximum altitude 16:23:43 68° 280° (W) 588 3.2 -8.2°
Drops below altitude 10° 16:27:43 10° 4° (N) 1,818 5.4 -8.9°
Sets 16:29:53 0° 7° (N) 2,713 6.2 -9.3°
